This demonstration page uses our WeatherBlox Daily Observations layout. Learn more.

Left ArrowRight Arrow

31.84235, -102.49876

Hourly Observations for May 22, 2015

Temp ( °F °C ) Dew Point ( °F °C ) Humidity (%) Winds ( mph kmh ) Pressure ( in mb ) Visibility ( mi km ) Precip ( " mm )
12:53 am 00:53 Cloudy with Mist and Fog 57 13.9 55 12.8 93 93 ESE 16 26 30.03 1017 4 6 0.00 0.00
1:53 am 01:53 Cloudy with Light Rain 57 13.9 55 12.8 93 93 ESE 5 7 30.06 1018 5 8 0.00 0.03
2:05 am 02:05 Cloudy with Rain 57 13.9 55 12.8 93 93 ESE 7 11 30.06 1018 2 3 0.02 0.51
2:39 am 02:39 Cloudy with Light Rain 57 13.9 55 12.8 93 93 ENE 5 7 30.06 1018 4 6 0.03 0.76
2:53 am 02:53 Cloudy with Light Rain 57 13.9 55 12.8 93 93 E 6 9 30.03 1017 3 5 0.04 1.02
3:32 am 03:32 Cloudy with Light Rain 57 13.9 55 12.8 93 93 E 6 9 30.06 1018 3 4 0.01 0.25
3:53 am 03:53 Cloudy with Light Rain 57 13.9 55 12.8 93 93 E 8 13 30.01 1016 2 3 0.01 0.25
4:10 am 04:10 Cloudy with Mist and Fog 57 13.9 55 12.8 93 93 ESE 8 13 30.06 1018 3 5 0.01 0.25
4:19 am 04:19 Cloudy with Light Rain 57 13.9 55 12.8 93 93 ESE 7 11 30.06 1018 3 4 0.01 0.25
4:26 am 04:26 Cloudy with Mist and Fog 58 14.4 55 12.8 90 90 ESE 6 9 30.06 1018 3 5 0.01 0.25
4:37 am 04:37 Cloudy with Mist and Fog 58 14.4 55 12.8 90 90 E 6 9 30.06 1018 2 3 0.01 0.25
4:53 am 04:53 Cloudy with Mist and Fog 58 14.4 56 13.3 93 93 E 3 6 30.00 1016 2 3 0.01 0.25
5:19 am 05:19 Cloudy with Mist and Fog 58 14.4 56 13.3 93 93 E 5 7 30.06 1018 2 3 0.00 0.00
5:53 am 05:53 Cloudy with Light Rain 58 14.4 56 13.3 93 93 E 6 9 30.01 1016 2 2 0.00 0.03
6:11 am 06:11 Cloudy with Mist and Fog 58 14.4 56 13.3 93 93 E 7 11 30.06 1018 2 3 0.01 0.25
6:21 am 06:21 Cloudy with Light Rain 58 14.4 56 13.3 93 93 E 6 9 30.06 1018 2 3 0.01 0.25
6:29 am 06:29 Cloudy with Light Rain 58 14.4 56 13.3 93 93 E 6 9 30.06 1018 2 3 0.01 0.25
6:53 am 06:53 Cloudy with Light Rain 58 14.4 56 13.3 93 93 ENE 6 9 30.02 1017 3 4 0.01 0.25
7:20 am 07:20 Cloudy with Light Rain 58 14.4 56 13.3 93 93 ENE 7 11 30.06 1018 1 2 0.01 0.25
7:53 am 07:53 Cloudy with Light Rain 59 15 57 13.9 93 93 ENE 6 9 30.03 1017 2 2 0.01 0.25
8:29 am 08:29 Cloudy with Light Rain 59 15 57 13.9 93 93 NE 5 7 30.03 1017 3 4 0.01 0.25
8:36 am 08:36 Cloudy with Mist and Fog 59 15 57 13.9 93 93 ENE 6 9 30.03 1017 3 5 0.01 0.25
8:49 am 08:49 Cloudy with Light Rain 59 15 57 14 94 94 NE 7 11 30.03 1017 3 4 0.01 0.25
8:53 am 08:53 Cloudy with Light Rain 59 15 57 13.9 93 93 NE 6 9 30.04 1017 3 5 0.01 0.25
9:15 am 09:15 Cloudy with Light Rain 59 15 57 13.9 93 93 ENE 6 9 30.03 1017 3 4 0.01 0.25
9:30 am 09:30 Cloudy with Light Rain 60 15.6 57 13.9 90 90 ENE 3 6 30.03 1017 2 3 0.01 0.25
9:40 am 09:40 Cloudy with Light Rain 60 15.6 57 13.9 90 90 ENE 5 7 30.03 1017 2 3 0.01 0.25
9:53 am 09:53 Cloudy with Mist and Fog 60 15.6 58 14.4 93 93 ENE 6 9 30.03 1017 3 5 0.01 0.25
10:53 am 10:53 Cloudy with Mist and Fog 61 16.1 59 15 93 93 E 7 11 30.03 1017 3 5 0.00 0.00
11:53 am 11:53 Cloudy with Mist and Fog 63 17.2 60 15.6 90 90 ESE 7 11 30.03 1017 5 8 0.00 0.00
12:53 pm 12:53 Cloudy with Mist and Fog 65 18.3 62 16.7 90 90 SSE 7 11 30.02 1017 5 8 0.00 0.00
1:18 pm 13:18 Cloudy 66 18.9 62 16.7 87 87 SE 3 6 30.00 1016 7 11 0.00 0.00
1:40 pm 13:40 Cloudy 68 20 62 16.7 81 81 Calm 29.97 1015 8 13 0.00 0.00
1:53 pm 13:53 Cloudy 70 21.1 63 17.2 79 79 Calm 29.99 1016 9 14 0.00 0.00
2:40 pm 14:40 Cloudy 72 22.2 63 17.2 73 73 SSE 5 7 29.94 1014 10 16 0.00 0.00
2:53 pm 14:53 Cloudy 74 23.3 63 17.2 69 69 Calm 29.96 1015 10 16 0.00 0.00
3:00 pm 15:00 Mostly Cloudy 73 22.8 62 16.7 69 69 Calm 29.91 1013 10 16 0.00 0.00
3:48 pm 15:48 Cloudy 75 24 63 17 65 65 ENE 5 7 29.88 1012 10 16 0.00 0.00
3:53 pm 15:53 Cloudy 76 24.4 64 17.8 67 67 E 8 13 29.93 1014 10 16 0.00 0.00
4:16 pm 16:16 Mostly Cloudy 77 25 61 16.1 58 58 Calm 29.85 1011 10 16 0.00 0.00
4:53 pm 16:53 Partly Cloudy 78 25.6 62 16.7 58 58 E 9 15 29.90 1013 10 16 0.00 0.00
5:53 pm 17:53 Mostly Sunny 79 26.1 62 16.7 56 56 ESE 9 15 29.88 1012 10 16 0.00 0.00
6:53 pm 18:53 Mostly Cloudy 78 25.6 62 16.7 58 58 SE 13 20 29.88 1012 10 16 0.00 0.00
7:53 pm 19:53 Sunny 78 25.6 62 16.7 58 58 SSE 21 33 29.87 1012 10 16 0.00 0.00
8:53 pm 20:53 Clear 75 23.9 62 16.7 64 64 SE 22 35 29.86 1011 10 16 0.00 0.00
9:53 pm 21:53 Cloudy 73 22.8 63 17.2 71 71 SSE 18 30 29.90 1013 10 16 0.00 0.00
10:53 pm 22:53 Clear 71 21.7 62 16.7 73 73 SSE 21 33 29.91 1013 10 16 0.00 0.00
11:53 pm 23:53 Mostly Clear 70 21.1 63 17.2 79 79 SE 20 31 29.88 1012 10 16 0.00 0.00

Powered by AerisWeather